Time,TemperatureF,DewpointF,PressureIn,WindDirection,WindDirectionDegrees,WindSpeedMPH,WindSpeedGustMPH,Humidity,HourlyPrecipIn,Conditions,Clouds,dailyrainin,SolarRadiationWatts/m^2,SoftwareType,DateUTC
2013-02-01 00:02:00,34.0,16.0,-100.00,West,264,16.0,28.0,47,0.00,,,0.83,1.000000,,2013-02-01 00:02:00,
2013-02-01 00:32:00,32.0,15.0,-100.00,WSW,251,14.0,34.0,48,0.00,,,0.83,0.000000,,2013-02-01 00:32:00,
2013-02-01 00:42:00,32.0,15.0,-100.00,WSW,251,14.0,34.0,48,0.00,,,0.83,0.000000,,2013-02-01 00:42:00,
2013-02-01 00:52:00,32.0,15.0,-100.00,WSW,251,14.0,34.0,48,0.00,,,0.83,0.000000,,2013-02-01 00:52:00,
2013-02-01 01:01:00,32.0,15.0,-100.00,WSW,251,14.0,34.0,48,0.00,,,0.83,0.000000,,2013-02-01 01:01:00,
2013-02-01 01:32:00,32.0,12.0,-100.00,WSW,252,14.0,28.0,42,0.00,,,-99.99,0.000000,,2013-02-01 01:32:00,
2013-02-01 01:42:00,32.0,12.0,-100.00,WSW,252,14.0,28.0,42,0.00,,,-99.99,0.000000,,2013-02-01 01:42:00,
2013-02-01 01:52:00,32.0,12.0,-100.00,WSW,252,14.0,28.0,42,0.00,,,-99.99,0.000000,,2013-02-01 01:52:00,
2013-02-01 02:02:00,32.0,12.0,-100.00,WSW,252,14.0,28.0,42,0.00,,,-99.99,0.000000,,2013-02-01 02:02:00,
2013-02-01 02:32:00,31.0,13.0,-100.00,WSW,251,13.0,25.0,47,0.00,,,0.82,0.000000,,2013-02-01 02:32:00,
2013-02-01 02:42:00,31.0,13.0,-100.00,WSW,251,13.0,25.0,47,0.00,,,0.82,0.000000,,2013-02-01 02:42:00,
2013-02-01 02:52:00,31.0,13.0,-100.00,WSW,251,13.0,25.0,47,0.00,,,0.82,0.000000,,2013-02-01 02:52:00,
2013-02-01 03:02:00,31.0,13.0,-100.00,WSW,251,13.0,25.0,47,0.00,,,0.82,0.000000,,2013-02-01 03:02:00,
2013-02-01 03:33:00,30.0,14.0,-100.00,WSW,254,16.0,29.0,50,0.00,,,0.81,0.000000,,2013-02-01 03:33:00,
2013-02-01 03:42:00,30.0,14.0,-100.00,WSW,254,16.0,29.0,50,0.00,,,0.81,0.000000,,2013-02-01 03:42:00,
2013-02-01 03:52:00,30.0,14.0,-100.00,WSW,254,16.0,29.0,50,0.00,,,0.81,0.000000,,2013-02-01 03:52:00,
2013-02-01 04:02:00,30.0,14.0,-100.00,WSW,254,16.0,29.0,50,0.00,,,0.81,0.000000,,2013-02-01 04:02:00,
2013-02-01 04:32:00,29.0,9.0,-100.00,West,262,11.0,25.0,42,0.00,,,0.70,0.000000,,2013-02-01 04:32:00,
2013-02-01 04:42:00,29.0,9.0,-100.00,West,262,11.0,25.0,42,0.00,,,0.70,0.000000,,2013-02-01 04:42:00,
2013-02-01 04:52:00,29.0,9.0,-100.00,West,262,11.0,25.0,42,0.00,,,0.70,0.000000,,2013-02-01 04:52:00,
2013-02-01 05:03:00,29.0,9.0,-100.00,West,262,11.0,25.0,42,0.00,,,0.70,0.000000,,2013-02-01 05:03:00,
2013-02-01 05:32:00,29.0,7.0,-100.00,West,261,12.0,22.0,39,0.00,,,0.59,0.000000,,2013-02-01 05:32:00,
2013-02-01 05:42:00,29.0,7.0,-100.00,West,261,12.0,22.0,39,0.00,,,0.59,0.000000,,2013-02-01 05:42:00,
2013-02-01 05:52:00,29.0,7.0,-100.00,West,261,12.0,22.0,39,0.00,,,0.59,0.000000,,2013-02-01 05:52:00,
2013-02-01 06:02:00,29.0,7.0,-100.00,West,261,12.0,22.0,39,0.00,,,0.59,0.000000,,2013-02-01 06:02:00,
2013-02-01 06:32:00,28.0,7.0,-100.00,West,260,9.0,25.0,40,0.00,,,0.52,0.000000,,2013-02-01 06:32:00,
2013-02-01 06:42:00,28.0,7.0,-100.00,West,260,9.0,25.0,40,0.00,,,0.52,0.000000,,2013-02-01 06:42:00,
2013-02-01 06:52:00,28.0,7.0,-100.00,West,260,9.0,25.0,40,0.00,,,0.52,0.000000,,2013-02-01 06:52:00,
2013-02-01 07:02:00,28.0,7.0,-100.00,West,260,9.0,25.0,40,0.00,,,0.52,0.000000,,2013-02-01 07:02:00,
2013-02-01 07:32:00,28.0,9.0,-100.00,SW,235,8.0,19.0,44,0.00,,,0.48,0.000000,,2013-02-01 07:32:00,
2013-02-01 07:42:00,28.0,9.0,-100.00,SW,235,8.0,19.0,44,0.00,,,0.48,0.000000,,2013-02-01 07:42:00,
2013-02-01 07:52:00,28.0,9.0,-100.00,SW,235,8.0,19.0,44,0.00,,,0.48,0.000000,,2013-02-01 07:52:00,
2013-02-01 08:01:00,28.0,9.0,-100.00,SW,235,8.0,19.0,44,0.00,,,0.48,0.000000,,2013-02-01 08:01:00,
2013-02-01 08:32:00,28.0,10.0,-100.00,WSW,249,12.0,18.0,46,0.00,,,0.46,0.000000,,2013-02-01 08:32:00,
2013-02-01 08:42:00,28.0,10.0,-100.00,WSW,249,12.0,18.0,46,0.00,,,0.46,0.000000,,2013-02-01 08:42:00,
2013-02-01 08:52:00,28.0,10.0,-100.00,WSW,249,12.0,18.0,46,0.00,,,0.46,0.000000,,2013-02-01 08:52:00,
2013-02-01 09:02:00,28.0,10.0,-100.00,WSW,249,12.0,18.0,46,0.00,,,0.46,0.000000,,2013-02-01 09:02:00,
2013-02-01 09:32:00,26.0,10.0,-100.00,WSW,252,6.0,20.0,51,0.00,,,0.14,0.000000,,2013-02-01 09:32:00,
2013-02-01 09:42:00,26.0,10.0,-100.00,WSW,252,6.0,20.0,51,0.00,,,0.14,0.000000,,2013-02-01 09:42:00,
2013-02-01 09:52:00,26.0,10.0,-100.00,WSW,252,6.0,20.0,51,0.00,,,0.14,0.000000,,2013-02-01 09:52:00,
2013-02-01 10:01:00,26.0,10.0,-100.00,WSW,252,6.0,20.0,51,0.00,,,0.14,0.000000,,2013-02-01 10:01:00,
2013-02-01 10:32:00,26.0,11.0,-100.00,SW,233,9.0,13.0,53,0.00,,,0.04,0.000000,,2013-02-01 10:32:00,
2013-02-01 10:43:00,26.0,11.0,-100.00,SW,233,9.0,13.0,53,0.00,,,0.04,0.000000,,2013-02-01 10:43:00,
2013-02-01 10:53:00,26.0,11.0,-100.00,SW,233,9.0,13.0,53,0.00,,,0.04,0.000000,,2013-02-01 10:53:00,
2013-02-01 11:02:00,26.0,11.0,-100.00,SW,233,9.0,13.0,53,0.00,,,0.04,0.000000,,2013-02-01 11:02:00,
2013-02-01 11:32:00,26.0,12.0,-100.00,SW,234,10.0,18.0,54,0.00,,,0.03,0.000000,,2013-02-01 11:32:00,
2013-02-01 11:42:00,26.0,12.0,-100.00,SW,234,10.0,18.0,54,0.00,,,0.03,0.000000,,2013-02-01 11:42:00,
2013-02-01 11:53:00,26.0,12.0,-100.00,SW,234,10.0,18.0,54,0.00,,,0.03,0.000000,,2013-02-01 11:53:00,
2013-02-01 12:03:00,26.0,12.0,-100.00,SW,234,10.0,18.0,54,0.00,,,0.03,0.000000,,2013-02-01 12:03:00,
2013-02-01 12:32:00,26.0,12.0,-100.00,WSW,247,10.0,21.0,54,0.00,,,0.00,1.000000,,2013-02-01 12:32:00,
2013-02-01 12:42:00,26.0,12.0,-100.00,WSW,247,10.0,21.0,54,0.00,,,0.00,1.000000,,2013-02-01 12:42:00,
2013-02-01 12:52:00,26.0,12.0,-100.00,WSW,247,10.0,21.0,54,0.00,,,0.00,1.000000,,2013-02-01 12:52:00,
2013-02-01 13:02:00,26.0,12.0,-100.00,WSW,247,10.0,21.0,54,0.00,,,0.00,1.000000,,2013-02-01 13:02:00,
2013-02-01 13:33:00,27.0,11.0,-100.00,WSW,238,11.0,19.0,50,0.00,,,0.00,61.000000,,2013-02-01 13:33:00,
2013-02-01 13:43:00,27.0,11.0,-100.00,WSW,238,11.0,19.0,50,0.00,,,0.00,61.000000,,2013-02-01 13:43:00,
2013-02-01 13:53:00,27.0,11.0,-100.00,WSW,238,11.0,19.0,50,0.00,,,0.00,61.000000,,2013-02-01 13:53:00,
2013-02-01 14:03:00,27.0,11.0,-100.00,WSW,238,11.0,19.0,50,0.00,,,0.00,61.000000,,2013-02-01 14:03:00,
2013-02-01 14:33:00,29.0,10.0,-100.00,WNW,285,8.0,19.0,44,0.00,,,0.00,249.000000,,2013-02-01 14:33:00,
2013-02-01 14:42:00,29.0,10.0,-100.00,WNW,285,8.0,19.0,44,0.00,,,0.00,249.000000,,2013-02-01 14:42:00,
2013-02-01 14:53:00,29.0,10.0,-100.00,WNW,285,8.0,19.0,44,0.00,,,0.00,249.000000,,2013-02-01 14:53:00,
2013-02-01 15:03:00,29.0,10.0,-100.00,WNW,285,8.0,19.0,44,0.00,,,0.00,249.000000,,2013-02-01 15:03:00,
2013-02-01 15:33:00,29.0,7.0,-100.00,WNW,293,8.0,20.0,38,0.00,,,0.00,266.000000,,2013-02-01 15:33:00,
2013-02-01 15:42:00,29.0,7.0,-100.00,WNW,293,8.0,20.0,38,0.00,,,0.00,266.000000,,2013-02-01 15:42:00,
2013-02-01 15:52:00,29.0,7.0,-100.00,WNW,293,8.0,20.0,38,0.00,,,0.00,266.000000,,2013-02-01 15:52:00,
2013-02-01 16:03:00,29.0,7.0,-100.00,WNW,293,8.0,20.0,38,0.00,,,0.00,266.000000,,2013-02-01 16:03:00,
2013-02-01 16:33:00,29.0,6.0,-100.00,WNW,302,9.0,19.0,37,0.00,,,0.00,198.000000,,2013-02-01 16:33:00,
2013-02-01 16:43:00,29.0,6.0,-100.00,WNW,302,9.0,19.0,37,0.00,,,0.00,198.000000,,2013-02-01 16:43:00,
2013-02-01 16:53:00,29.0,6.0,-100.00,WNW,302,9.0,19.0,37,0.00,,,0.00,198.000000,,2013-02-01 16:53:00,
2013-02-01 17:03:00,29.0,6.0,-100.00,WNW,302,9.0,19.0,37,0.00,,,0.00,198.000000,,2013-02-01 17:03:00,
2013-02-01 17:32:00,30.0,4.0,-100.00,WNW,287,10.0,22.0,32,0.00,,,0.00,565.000000,,2013-02-01 17:32:00,
2013-02-01 17:42:00,30.0,4.0,-100.00,WNW,287,10.0,22.0,32,0.00,,,0.00,565.000000,,2013-02-01 17:42:00,
2013-02-01 17:53:00,30.0,4.0,-100.00,WNW,287,10.0,22.0,32,0.00,,,0.00,565.000000,,2013-02-01 17:53:00,
2013-02-01 18:03:00,30.0,4.0,-100.00,WNW,287,10.0,22.0,32,0.00,,,0.00,565.000000,,2013-02-01 18:03:00,
2013-02-01 18:33:00,29.0,4.0,-100.00,WNW,295,6.0,18.0,33,0.00,,,0.00,218.000000,,2013-02-01 18:33:00,
2013-02-01 18:42:00,29.0,4.0,-100.00,WNW,295,6.0,18.0,33,0.00,,,0.00,218.000000,,2013-02-01 18:42:00,
2013-02-01 18:53:00,29.0,4.0,-100.00,WNW,295,6.0,18.0,33,0.00,,,0.00,218.000000,,2013-02-01 18:53:00,
2013-02-01 19:03:00,29.0,4.0,-100.00,WNW,295,6.0,18.0,33,0.00,,,0.00,218.000000,,2013-02-01 19:03:00,
2013-02-01 19:33:00,30.0,3.0,-100.00,WNW,285,10.0,24.0,31,0.00,,,0.00,336.000000,,2013-02-01 19:33:00,
2013-02-01 19:42:00,30.0,3.0,-100.00,WNW,285,10.0,24.0,31,0.00,,,0.00,336.000000,,2013-02-01 19:42:00,
2013-02-01 19:52:00,30.0,3.0,-100.00,WNW,285,10.0,24.0,31,0.00,,,0.00,336.000000,,2013-02-01 19:52:00,
2013-02-01 20:02:00,30.0,3.0,-100.00,WNW,285,10.0,24.0,31,0.00,,,0.00,336.000000,,2013-02-01 20:02:00,
2013-02-01 20:32:00,31.0,3.0,-100.00,WNW,291,8.0,25.0,30,0.00,,,-99.99,227.000000,,2013-02-01 20:32:00,
2013-02-01 20:42:00,31.0,3.0,-100.00,WNW,291,8.0,25.0,30,0.00,,,-99.99,227.000000,,2013-02-01 20:42:00,
2013-02-01 20:52:00,31.0,3.0,-100.00,WNW,291,8.0,25.0,30,0.00,,,-99.99,227.000000,,2013-02-01 20:52:00,
2013-02-01 21:02:00,31.0,3.0,-100.00,WNW,291,8.0,25.0,30,0.00,,,-99.99,227.000000,,2013-02-01 21:02:00,
2013-02-01 21:32:00,28.0,3.0,-100.00,WNW,294,8.0,26.0,34,0.00,,,0.00,239.000000,,2013-02-01 21:32:00,
2013-02-01 21:42:00,28.0,3.0,-100.00,WNW,294,8.0,26.0,34,0.00,,,0.00,239.000000,,2013-02-01 21:42:00,
2013-02-01 21:53:00,28.0,3.0,-100.00,WNW,294,8.0,26.0,34,0.00,,,0.00,239.000000,,2013-02-01 21:53:00,
2013-02-01 22:03:00,28.0,3.0,-100.00,WNW,294,8.0,26.0,34,0.00,,,0.00,239.000000,,2013-02-01 22:03:00,
2013-02-01 22:32:00,27.0,2.0,-100.00,WNW,303,8.0,22.0,33,0.00,,,0.00,74.000000,,2013-02-01 22:32:00,
2013-02-01 22:42:00,27.0,2.0,-100.00,WNW,303,8.0,22.0,33,0.00,,,0.00,74.000000,,2013-02-01 22:42:00,
2013-02-01 22:52:00,27.0,2.0,-100.00,WNW,303,8.0,22.0,33,0.00,,,0.00,74.000000,,2013-02-01 22:52:00,
2013-02-01 23:02:00,27.0,2.0,-100.00,WNW,303,8.0,22.0,33,0.00,,,0.00,74.000000,,2013-02-01 23:02:00,
2013-02-01 23:32:00,25.0,1.0,-100.00,WNW,294,4.0,20.0,34,0.00,,,0.00,2.000000,,2013-02-01 23:32:00,
2013-02-01 23:42:00,25.0,1.0,-100.00,WNW,294,4.0,20.0,34,0.00,,,0.00,2.000000,,2013-02-01 23:42:00,
2013-02-01 23:52:00,25.0,1.0,-100.00,WNW,294,4.0,20.0,34,0.00,,,0.00,2.000000,,2013-02-01 23:52:00,